Year,Month,Day,Hour,Minute,Value (Times are PST for temperature in C)
2010,07,11,00,00,18.40
2010,07,11,00,01,18.40
2010,07,11,00,02,18.40
2010,07,11,00,03,18.30
2010,07,11,00,04,18.30
2010,07,11,00,05,18.30
2010,07,11,00,06,18.30
2010,07,11,00,07,18.30
2010,07,11,00,08,18.30
2010,07,11,00,09,18.20
2010,07,11,00,10,18.20
2010,07,11,00,11,18.20
2010,07,11,00,12,18.20
2010,07,11,00,13,18.20
2010,07,11,00,14,18.20
2010,07,11,00,15,18.10
2010,07,11,00,16,18.10
2010,07,11,00,17,18.10
2010,07,11,00,18,18.10
2010,07,11,00,19,18.10
2010,07,11,00,20,18.00
2010,07,11,00,21,18.00
2010,07,11,00,22,18.00
2010,07,11,00,23,17.90
2010,07,11,00,24,17.90
2010,07,11,00,25,17.90
2010,07,11,00,26,17.90
2010,07,11,00,27,17.90
2010,07,11,00,28,17.90
2010,07,11,00,29,17.90
2010,07,11,00,30,17.90
2010,07,11,00,31,17.90
2010,07,11,00,32,17.90
2010,07,11,00,33,17.90
2010,07,11,00,34,17.90
2010,07,11,00,35,17.80
2010,07,11,00,36,17.80
2010,07,11,00,37,17.80
2010,07,11,00,38,17.80
2010,07,11,00,39,17.80
2010,07,11,00,40,17.70
2010,07,11,00,41,17.70
2010,07,11,00,42,17.70
2010,07,11,00,43,17.70
2010,07,11,00,44,17.70
2010,07,11,00,45,17.70
2010,07,11,00,46,17.60
2010,07,11,00,47,17.60
2010,07,11,00,48,17.60
2010,07,11,00,49,17.60
2010,07,11,00,50,17.60
2010,07,11,00,51,17.60
2010,07,11,00,52,17.50
2010,07,11,00,53,17.50
2010,07,11,00,54,17.50
2010,07,11,00,55,17.50
2010,07,11,00,56,17.40
2010,07,11,00,57,17.40
2010,07,11,00,58,17.40
2010,07,11,00,59,17.40
2010,07,11,01,00,17.40
2010,07,11,01,01,17.40
2010,07,11,01,02,17.30
2010,07,11,01,03,17.30
2010,07,11,01,04,17.30
2010,07,11,01,05,17.30
2010,07,11,01,06,17.30
2010,07,11,01,07,17.30
2010,07,11,01,08,17.20
2010,07,11,01,09,17.20
2010,07,11,01,10,17.20
2010,07,11,01,11,17.20
2010,07,11,01,12,17.20
2010,07,11,01,13,17.10
2010,07,11,01,14,17.10
2010,07,11,01,15,17.10
2010,07,11,01,16,17.10
2010,07,11,01,17,17.10
2010,07,11,01,18,17.10
2010,07,11,01,19,17.00
2010,07,11,01,20,17.00
2010,07,11,01,21,17.00
2010,07,11,01,22,17.00
2010,07,11,01,23,16.90
2010,07,11,01,24,16.90
2010,07,11,01,25,16.90
2010,07,11,01,26,16.90
2010,07,11,01,27,16.90
2010,07,11,01,28,16.90
2010,07,11,01,29,16.90
2010,07,11,01,30,16.80
2010,07,11,01,31,16.80
2010,07,11,01,32,16.80
2010,07,11,01,33,16.80
2010,07,11,01,34,16.80
2010,07,11,01,35,16.80
2010,07,11,01,36,16.80
2010,07,11,01,37,16.70
2010,07,11,01,38,16.70
2010,07,11,01,39,16.70
2010,07,11,01,40,16.70
2010,07,11,01,41,16.70
2010,07,11,01,42,16.60
2010,07,11,01,43,16.60
2010,07,11,01,44,16.60
2010,07,11,01,45,16.60
2010,07,11,01,46,16.60
2010,07,11,01,47,16.50
2010,07,11,01,48,16.50
2010,07,11,01,49,16.50
2010,07,11,01,50,16.50
2010,07,11,01,51,16.40
2010,07,11,01,52,16.40
2010,07,11,01,53,16.40
2010,07,11,01,54,16.40
2010,07,11,01,55,16.40
2010,07,11,01,56,16.30
2010,07,11,01,57,16.30
2010,07,11,01,58,16.30
2010,07,11,01,59,16.30
2010,07,11,02,00,16.30
2010,07,11,02,01,16.30
2010,07,11,02,02,16.30
2010,07,11,02,03,16.20
2010,07,11,02,04,16.20
2010,07,11,02,05,16.20
2010,07,11,02,06,16.20
2010,07,11,02,07,16.20
2010,07,11,02,08,16.20
2010,07,11,02,09,16.20
2010,07,11,02,10,16.20
2010,07,11,02,11,16.10
2010,07,11,02,12,16.10
2010,07,11,02,13,16.10
2010,07,11,02,14,16.10
2010,07,11,02,15,16.10
2010,07,11,02,16,16.10
2010,07,11,02,17,16.10
2010,07,11,02,18,16.10
2010,07,11,02,19,16.10
2010,07,11,02,20,16.00
2010,07,11,02,21,16.00
2010,07,11,02,22,16.00
2010,07,11,02,23,16.00
2010,07,11,02,24,16.00
2010,07,11,02,25,15.90
2010,07,11,02,26,15.90
2010,07,11,02,27,15.90
2010,07,11,02,28,15.90
2010,07,11,02,29,15.90
2010,07,11,02,30,15.90
2010,07,11,02,31,15.90
2010,07,11,02,32,15.90
2010,07,11,02,33,15.90
2010,07,11,02,34,15.90
2010,07,11,02,35,15.90
2010,07,11,02,36,15.90
2010,07,11,02,37,15.90
2010,07,11,02,38,15.90
2010,07,11,02,39,15.90
2010,07,11,02,40,15.90
2010,07,11,02,41,15.90
2010,07,11,02,42,15.90
2010,07,11,02,43,15.80
2010,07,11,02,44,15.80
2010,07,11,02,45,15.80
2010,07,11,02,46,15.80
2010,07,11,02,47,15.80
2010,07,11,02,48,15.80
2010,07,11,02,49,15.80
2010,07,11,02,50,15.80
2010,07,11,02,51,15.80
2010,07,11,02,52,15.80
2010,07,11,02,53,15.80
2010,07,11,02,54,15.80
2010,07,11,02,55,15.80
2010,07,11,02,56,15.80
2010,07,11,02,57,15.80
2010,07,11,02,58,15.70
2010,07,11,02,59,15.70
2010,07,11,03,00,15.70
2010,07,11,03,01,15.70
2010,07,11,03,02,15.70
2010,07,11,03,06,15.70
2010,07,11,03,07,15.60
2010,07,11,03,08,15.60
2010,07,11,03,09,15.60
2010,07,11,03,10,15.60
2010,07,11,03,11,15.60
2010,07,11,03,12,15.60
2010,07,11,03,13,15.60
2010,07,11,03,14,15.60
2010,07,11,03,15,15.60
2010,07,11,03,16,15.60
2010,07,11,03,17,15.60
2010,07,11,03,18,15.60
2010,07,11,03,19,15.60
2010,07,11,03,20,15.60
2010,07,11,03,21,15.50
2010,07,11,03,22,15.50
2010,07,11,03,23,15.50
2010,07,11,03,24,15.50
2010,07,11,03,25,15.50
2010,07,11,03,26,15.50
2010,07,11,03,27,15.50
2010,07,11,03,28,15.50
2010,07,11,03,29,15.50
2010,07,11,03,30,15.50
2010,07,11,03,31,15.50
2010,07,11,03,32,15.50
2010,07,11,03,33,15.50
2010,07,11,03,34,15.50
2010,07,11,03,35,15.50
2010,07,11,03,36,15.40
2010,07,11,03,37,15.40
2010,07,11,03,38,15.40
2010,07,11,03,39,15.40
2010,07,11,03,40,15.40
2010,07,11,03,41,15.40
2010,07,11,03,42,15.40
2010,07,11,03,43,15.40
2010,07,11,03,44,15.40
2010,07,11,03,45,15.40
2010,07,11,03,46,15.40
2010,07,11,03,47,15.40
2010,07,11,03,48,15.40
2010,07,11,03,49,15.40
2010,07,11,03,50,15.40
2010,07,11,03,51,15.40
2010,07,11,03,52,15.40
2010,07,11,03,53,15.30
2010,07,11,03,54,15.30
2010,07,11,03,55,15.30
2010,07,11,03,56,15.30
2010,07,11,03,57,15.30
2010,07,11,03,58,15.30
2010,07,11,03,59,15.30
2010,07,11,04,00,15.30
2010,07,11,04,01,15.30
2010,07,11,04,02,15.30
2010,07,11,04,03,15.30
2010,07,11,04,04,15.30
2010,07,11,04,05,15.30
2010,07,11,04,06,15.30
2010,07,11,04,07,15.30
2010,07,11,04,08,15.30
2010,07,11,04,09,15.30
2010,07,11,04,10,15.30
2010,07,11,04,11,15.30
2010,07,11,04,12,15.30
2010,07,11,04,13,15.30
2010,07,11,04,14,15.30
2010,07,11,04,15,15.30
2010,07,11,04,16,15.30
2010,07,11,04,17,15.20
2010,07,11,04,18,15.20
2010,07,11,04,19,15.20
2010,07,11,04,20,15.20
2010,07,11,04,21,15.20
2010,07,11,04,22,15.20
2010,07,11,04,23,15.20
2010,07,11,04,24,15.20
2010,07,11,04,25,15.20
2010,07,11,04,26,15.20
2010,07,11,04,27,15.20
2010,07,11,04,28,15.20
2010,07,11,04,29,15.10
2010,07,11,04,30,15.10
2010,07,11,04,31,15.10
2010,07,11,04,32,15.10
2010,07,11,04,33,15.10
2010,07,11,04,34,15.10
2010,07,11,04,35,15.10
2010,07,11,04,36,15.10
2010,07,11,04,37,15.00
2010,07,11,04,38,15.00
2010,07,11,04,39,15.00
2010,07,11,04,40,15.00
2010,07,11,04,41,15.00
2010,07,11,04,42,15.00
2010,07,11,04,43,15.00
2010,07,11,04,44,15.00
2010,07,11,04,45,15.00
2010,07,11,04,46,15.00
2010,07,11,04,47,15.00
2010,07,11,04,48,15.00
2010,07,11,04,49,15.00
2010,07,11,04,50,15.00
2010,07,11,04,51,15.00
2010,07,11,04,52,15.00
2010,07,11,04,53,15.00
2010,07,11,04,54,15.00
2010,07,11,04,55,15.00
2010,07,11,04,56,15.00
2010,07,11,04,57,15.00
2010,07,11,04,58,15.00
2010,07,11,04,59,15.00
2010,07,11,05,00,15.00
2010,07,11,05,01,15.00
2010,07,11,05,02,15.00
2010,07,11,05,03,15.00
2010,07,11,05,04,14.90
2010,07,11,05,05,14.90
2010,07,11,05,06,14.90
2010,07,11,05,07,14.90
2010,07,11,05,08,14.90
2010,07,11,05,09,14.90
2010,07,11,05,10,14.80
2010,07,11,05,11,14.80
2010,07,11,05,12,14.80
2010,07,11,05,13,14.80
2010,07,11,05,14,14.80
2010,07,11,05,15,14.80
2010,07,11,05,16,14.80
2010,07,11,05,17,14.80
2010,07,11,05,18,14.80
2010,07,11,05,19,14.80
2010,07,11,05,20,14.80
2010,07,11,05,21,14.80
2010,07,11,05,22,14.80
2010,07,11,05,23,14.80
2010,07,11,05,24,14.80
2010,07,11,05,25,14.80
2010,07,11,05,26,14.80
2010,07,11,05,27,14.80
2010,07,11,05,28,14.80
2010,07,11,05,29,14.70
2010,07,11,05,30,14.70
2010,07,11,05,31,14.70
2010,07,11,05,32,14.70
2010,07,11,05,33,14.70
2010,07,11,05,34,14.70
2010,07,11,05,35,14.70
2010,07,11,05,36,14.70
2010,07,11,05,37,14.70
2010,07,11,05,38,14.70
2010,07,11,05,39,14.70
2010,07,11,05,40,14.70
2010,07,11,05,41,14.70
2010,07,11,05,42,14.70
2010,07,11,05,43,14.70
2010,07,11,05,44,14.70
2010,07,11,05,45,14.70
2010,07,11,05,46,14.70
2010,07,11,05,47,14.70
2010,07,11,05,48,14.70
2010,07,11,05,49,14.70
2010,07,11,05,50,14.70
2010,07,11,05,51,14.70
2010,07,11,05,52,14.70
2010,07,11,05,53,14.70
2010,07,11,05,54,14.70
2010,07,11,05,55,14.70
2010,07,11,05,56,14.70
2010,07,11,05,57,14.70
2010,07,11,05,58,14.70
2010,07,11,05,59,14.70
2010,07,11,06,00,14.70
2010,07,11,06,01,14.80
2010,07,11,06,02,14.80
2010,07,11,06,03,14.80
2010,07,11,06,04,14.80
2010,07,11,06,05,14.80
2010,07,11,06,06,14.80
2010,07,11,06,07,14.80
2010,07,11,06,08,14.80
2010,07,11,06,09,14.80
2010,07,11,06,10,14.80
2010,07,11,06,11,14.80
2010,07,11,06,12,14.80
2010,07,11,06,13,14.80
2010,07,11,06,14,14.80
2010,07,11,06,15,14.80
2010,07,11,06,16,14.80
2010,07,11,06,17,14.80
2010,07,11,06,18,14.80
2010,07,11,06,19,14.80
2010,07,11,06,20,14.80
2010,07,11,06,21,14.80
2010,07,11,06,22,14.80
2010,07,11,06,23,14.80
2010,07,11,06,24,14.80
2010,07,11,06,25,14.80
2010,07,11,06,26,14.80
2010,07,11,06,27,14.80
2010,07,11,06,28,14.80
2010,07,11,06,29,14.80
2010,07,11,06,30,14.80
2010,07,11,06,31,14.80
2010,07,11,06,32,14.80
2010,07,11,06,33,14.80
2010,07,11,06,34,14.80
2010,07,11,06,35,14.80
2010,07,11,06,36,14.80
2010,07,11,06,37,14.80
2010,07,11,06,38,14.90
2010,07,11,06,39,14.90
2010,07,11,06,40,14.90
2010,07,11,06,41,15.00
2010,07,11,06,42,15.00
2010,07,11,06,43,15.00
2010,07,11,06,44,15.00
2010,07,11,06,45,15.00
2010,07,11,06,46,15.00
2010,07,11,06,47,15.00
2010,07,11,06,48,15.00
2010,07,11,06,49,15.00
2010,07,11,06,50,15.00
2010,07,11,06,51,15.00
2010,07,11,06,52,15.00
2010,07,11,06,53,15.00
2010,07,11,06,54,15.00
2010,07,11,06,55,15.00
2010,07,11,06,56,15.00
2010,07,11,06,57,15.00
2010,07,11,06,58,15.10
2010,07,11,06,59,15.10
2010,07,11,07,00,15.10
2010,07,11,07,01,15.20
2010,07,11,07,02,15.20
2010,07,11,07,03,15.20
2010,07,11,07,04,15.20
2010,07,11,07,05,15.20
2010,07,11,07,06,15.30
2010,07,11,07,07,15.30
2010,07,11,07,08,15.30
2010,07,11,07,09,15.30
2010,07,11,07,10,15.30
2010,07,11,07,11,15.40
2010,07,11,07,12,15.40
2010,07,11,07,13,15.40
2010,07,11,07,14,15.40
2010,07,11,07,15,15.50
2010,07,11,07,16,15.50
2010,07,11,07,17,15.50
2010,07,11,07,18,15.60
2010,07,11,07,19,15.60
2010,07,11,07,20,15.60
2010,07,11,07,21,15.60
2010,07,11,07,22,15.70
2010,07,11,07,23,15.70
2010,07,11,07,24,15.70
2010,07,11,07,25,15.80
2010,07,11,07,26,15.80
2010,07,11,07,27,15.80
2010,07,11,07,28,15.80
2010,07,11,07,29,15.90
2010,07,11,07,30,15.90
2010,07,11,07,31,15.90
2010,07,11,07,32,15.90
2010,07,11,07,33,16.00
2010,07,11,07,34,16.00
2010,07,11,07,35,16.00
2010,07,11,07,36,16.10
2010,07,11,07,37,16.10
2010,07,11,07,38,16.10
2010,07,11,07,39,16.20
2010,07,11,07,40,16.20
2010,07,11,07,41,16.20
2010,07,11,07,42,16.30
2010,07,11,07,43,16.30
2010,07,11,07,44,16.30
2010,07,11,07,45,16.30
2010,07,11,07,46,16.40
2010,07,11,07,47,16.40
2010,07,11,07,48,16.50
2010,07,11,07,49,16.60
2010,07,11,07,50,16.60
2010,07,11,07,51,16.70
2010,07,11,07,52,16.70
2010,07,11,07,53,16.80
2010,07,11,07,54,16.90
2010,07,11,07,55,16.90
2010,07,11,07,56,17.00
2010,07,11,07,57,17.10
2010,07,11,07,58,17.20
2010,07,11,07,59,17.30
2010,07,11,08,00,17.40
2010,07,11,08,01,17.50
2010,07,11,08,02,17.50
2010,07,11,08,03,17.70
2010,07,11,08,04,17.90
2010,07,11,08,05,18.10
2010,07,11,08,06,18.20
2010,07,11,08,07,18.30
2010,07,11,08,08,18.50
2010,07,11,08,09,18.70
2010,07,11,08,10,18.80
2010,07,11,08,11,18.90
2010,07,11,08,12,19.00
2010,07,11,08,13,19.20
2010,07,11,08,14,19.20
2010,07,11,08,15,19.30
2010,07,11,08,16,19.50
2010,07,11,08,17,19.60
2010,07,11,08,18,19.70
2010,07,11,08,19,19.80
2010,07,11,08,20,19.80
2010,07,11,08,21,19.90
2010,07,11,08,22,20.00
2010,07,11,08,23,20.10
2010,07,11,08,24,20.10
2010,07,11,08,25,20.20
2010,07,11,08,26,20.30
2010,07,11,08,27,20.30
2010,07,11,08,28,20.30
2010,07,11,08,29,20.30
2010,07,11,08,30,20.40
2010,07,11,08,31,20.40
2010,07,11,08,32,20.40
2010,07,11,08,33,20.40
2010,07,11,08,34,20.40
2010,07,11,08,35,20.40
2010,07,11,08,36,20.40
2010,07,11,08,37,20.50
2010,07,11,08,38,20.60
2010,07,11,08,39,20.60
2010,07,11,08,40,20.60
2010,07,11,08,41,20.60
2010,07,11,08,42,20.60
2010,07,11,08,43,20.60
2010,07,11,08,44,20.60
2010,07,11,08,45,20.70
2010,07,11,08,46,20.70
2010,07,11,08,47,20.70
2010,07,11,08,48,20.70
2010,07,11,08,49,20.80
2010,07,11,08,50,20.80
2010,07,11,08,51,20.80
2010,07,11,08,52,20.80
2010,07,11,08,53,20.80
2010,07,11,08,54,20.80
2010,07,11,08,55,20.80
2010,07,11,08,56,20.80
2010,07,11,08,57,20.80
2010,07,11,08,58,20.80
2010,07,11,08,59,20.80
2010,07,11,09,00,20.80
2010,07,11,09,01,20.90
2010,07,11,09,02,20.90
2010,07,11,09,03,20.90
2010,07,11,09,04,21.00
2010,07,11,09,05,21.10
2010,07,11,09,06,21.20
2010,07,11,09,07,21.20
2010,07,11,09,08,21.30
2010,07,11,09,09,21.40
2010,07,11,09,10,21.40
2010,07,11,09,11,21.50
2010,07,11,09,12,21.50
2010,07,11,09,13,21.60
2010,07,11,09,14,21.60
2010,07,11,09,15,21.70
2010,07,11,09,16,21.70
2010,07,11,09,17,21.70
2010,07,11,09,18,21.70
2010,07,11,09,19,21.70
2010,07,11,09,20,21.70
2010,07,11,09,21,21.70
2010,07,11,09,22,21.80
2010,07,11,09,23,21.80
2010,07,11,09,24,21.80
2010,07,11,09,25,21.90
2010,07,11,09,26,22.00
2010,07,11,09,27,22.10
2010,07,11,09,28,22.20
2010,07,11,09,29,22.20
2010,07,11,09,30,22.30
2010,07,11,09,31,22.40
2010,07,11,09,32,22.50
2010,07,11,09,33,22.50
2010,07,11,09,34,22.60
2010,07,11,09,35,22.60
2010,07,11,09,36,22.60
2010,07,11,09,37,22.60
2010,07,11,09,38,22.60
2010,07,11,09,39,22.60
2010,07,11,09,40,22.60
2010,07,11,09,41,22.60
2010,07,11,09,42,22.70
2010,07,11,09,43,22.70
2010,07,11,09,44,22.70
2010,07,11,09,45,22.70
2010,07,11,09,46,22.60
2010,07,11,09,47,22.60
2010,07,11,09,48,22.50
2010,07,11,09,49,22.50
2010,07,11,09,50,22.50
2010,07,11,09,51,22.60
2010,07,11,09,52,22.60
2010,07,11,09,53,22.70
2010,07,11,09,54,22.70
2010,07,11,09,55,22.80
2010,07,11,09,56,22.80
2010,07,11,09,57,22.70
2010,07,11,09,58,22.70
2010,07,11,09,59,22.60
2010,07,11,10,00,22.60
2010,07,11,10,01,22.60
2010,07,11,10,02,22.50
2010,07,11,10,03,22.50
2010,07,11,10,04,22.40
2010,07,11,10,05,22.40
2010,07,11,10,06,22.40
2010,07,11,10,07,22.40
2010,07,11,10,08,22.40
2010,07,11,10,09,22.40
2010,07,11,10,10,22.40
2010,07,11,10,11,22.50
2010,07,11,10,12,22.50
2010,07,11,10,13,22.60
2010,07,11,10,14,22.60
2010,07,11,10,15,22.60
2010,07,11,10,16,22.60
2010,07,11,10,17,22.70
2010,07,11,10,18,22.80
2010,07,11,10,19,22.80
2010,07,11,10,20,22.80
2010,07,11,10,21,22.90
2010,07,11,10,22,23.00
2010,07,11,10,23,23.00
2010,07,11,10,24,23.00
2010,07,11,10,25,23.00
2010,07,11,10,26,23.00
2010,07,11,10,27,23.10
2010,07,11,10,28,23.10
2010,07,11,10,29,23.10
2010,07,11,10,30,23.10
2010,07,11,10,31,23.20
2010,07,11,10,32,23.20
2010,07,11,10,33,23.20
2010,07,11,10,34,23.30
2010,07,11,10,35,23.30
2010,07,11,10,36,23.30
2010,07,11,10,37,23.30
2010,07,11,10,38,23.30
2010,07,11,10,39,23.30
2010,07,11,10,40,23.30
2010,07,11,10,41,23.20
2010,07,11,10,42,23.20
2010,07,11,10,43,23.10
2010,07,11,10,44,23.10
2010,07,11,10,45,23.00
2010,07,11,10,46,23.00
2010,07,11,10,47,23.00
2010,07,11,10,48,23.00
2010,07,11,10,49,23.00
2010,07,11,10,50,23.10
2010,07,11,10,51,23.10
2010,07,11,10,52,23.20
2010,07,11,10,53,23.30
2010,07,11,10,54,23.30
2010,07,11,10,55,23.40
2010,07,11,10,56,23.40
2010,07,11,10,57,23.40
2010,07,11,10,58,23.40
2010,07,11,10,59,23.40
2010,07,11,11,00,23.40
2010,07,11,11,01,23.30
2010,07,11,11,02,23.40
2010,07,11,11,03,23.40
2010,07,11,11,04,23.40
2010,07,11,11,05,23.40
2010,07,11,11,06,23.50
2010,07,11,11,07,23.50
2010,07,11,11,08,23.50
2010,07,11,11,09,23.50
2010,07,11,11,10,23.50
2010,07,11,11,11,23.50
2010,07,11,11,12,23.40
2010,07,11,11,13,23.40
2010,07,11,11,14,23.40
2010,07,11,11,15,23.40
2010,07,11,11,16,23.50
2010,07,11,11,17,23.50
2010,07,11,11,18,23.50
2010,07,11,11,19,23.40
2010,07,11,11,20,23.30
2010,07,11,11,21,23.20
2010,07,11,11,22,23.00
2010,07,11,11,23,22.90
2010,07,11,11,24,22.90
2010,07,11,11,25,22.80
2010,07,11,11,26,22.80
2010,07,11,11,27,22.80
2010,07,11,11,28,22.90
2010,07,11,11,29,23.00
2010,07,11,11,30,23.10
2010,07,11,11,31,23.20
2010,07,11,11,32,23.20
2010,07,11,11,33,23.30
2010,07,11,11,34,23.40
2010,07,11,11,35,23.50
2010,07,11,11,36,23.50
2010,07,11,11,37,23.40
2010,07,11,11,38,23.40
2010,07,11,11,39,23.40
2010,07,11,11,40,23.40
2010,07,11,11,41,23.40
2010,07,11,11,42,23.40
2010,07,11,11,43,23.30
2010,07,11,11,44,23.30
2010,07,11,11,45,23.20
2010,07,11,11,46,23.20
2010,07,11,11,47,23.20
2010,07,11,11,48,23.20
2010,07,11,11,49,23.20
2010,07,11,11,50,23.10
2010,07,11,11,51,23.10
2010,07,11,11,52,23.00
2010,07,11,11,53,22.90
2010,07,11,11,54,22.90
2010,07,11,11,55,22.80
2010,07,11,11,56,22.70
2010,07,11,11,57,22.70
2010,07,11,11,58,22.60
2010,07,11,11,59,22.50
2010,07,11,12,00,22.50
2010,07,11,12,01,22.50
2010,07,11,12,02,22.50
2010,07,11,12,03,22.50
2010,07,11,12,04,22.60
2010,07,11,12,05,22.60
2010,07,11,12,06,22.70
2010,07,11,12,07,22.70
2010,07,11,12,08,22.70
2010,07,11,12,09,22.80
2010,07,11,12,10,22.80
2010,07,11,12,11,22.80
2010,07,11,12,12,22.80
2010,07,11,12,13,22.70
2010,07,11,12,14,22.70
2010,07,11,12,15,22.60
2010,07,11,12,16,22.50
2010,07,11,12,17,22.50
2010,07,11,12,18,22.50
2010,07,11,12,19,22.50
2010,07,11,12,20,22.50
2010,07,11,12,21,22.50
2010,07,11,12,22,22.40
2010,07,11,12,23,22.40
2010,07,11,12,24,22.50
2010,07,11,12,25,22.60
2010,07,11,12,26,22.60
2010,07,11,12,27,22.60
2010,07,11,12,28,22.60
2010,07,11,12,29,22.60
2010,07,11,12,30,22.60
2010,07,11,12,31,22.70
2010,07,11,12,32,22.70
2010,07,11,12,33,22.70
2010,07,11,12,34,22.80
2010,07,11,12,35,22.80
2010,07,11,12,36,22.70
2010,07,11,12,37,22.50
2010,07,11,12,38,22.40
2010,07,11,12,39,22.30
2010,07,11,12,40,22.20
2010,07,11,12,41,22.20
2010,07,11,12,42,22.10
2010,07,11,12,43,22.10
2010,07,11,12,44,22.10
2010,07,11,12,45,22.10
2010,07,11,12,46,22.00
2010,07,11,12,47,22.00
2010,07,11,12,48,21.90
2010,07,11,12,49,21.80
2010,07,11,12,50,21.80
2010,07,11,12,51,21.90
2010,07,11,12,52,22.00
2010,07,11,12,53,22.20
2010,07,11,12,54,22.20
2010,07,11,12,55,22.30
2010,07,11,12,56,22.30
2010,07,11,12,57,22.30
2010,07,11,12,58,22.30
2010,07,11,12,59,22.30
2010,07,11,13,00,22.30
2010,07,11,13,01,22.30
2010,07,11,13,02,22.30
2010,07,11,13,03,22.40
2010,07,11,13,04,22.40
2010,07,11,13,05,22.40
2010,07,11,13,06,22.40
2010,07,11,13,07,22.40
2010,07,11,13,08,22.40
2010,07,11,13,09,22.40
2010,07,11,13,10,22.40
2010,07,11,13,11,22.40
2010,07,11,13,12,22.40
2010,07,11,13,13,22.50
2010,07,11,13,14,22.50
2010,07,11,13,15,22.60
2010,07,11,13,16,22.50
2010,07,11,13,17,22.50
2010,07,11,13,18,22.40
2010,07,11,13,19,22.40
2010,07,11,13,20,22.40
2010,07,11,13,21,22.40
2010,07,11,13,22,22.40
2010,07,11,13,23,22.50
2010,07,11,13,24,22.40
2010,07,11,13,25,22.40
2010,07,11,13,26,22.40
2010,07,11,13,27,22.40
2010,07,11,13,28,22.40
2010,07,11,13,29,22.50
2010,07,11,13,30,22.60
2010,07,11,13,31,22.70
2010,07,11,13,32,22.70
2010,07,11,13,33,22.80
2010,07,11,13,34,22.80
2010,07,11,13,35,22.80
2010,07,11,13,36,22.90
2010,07,11,13,37,22.90
2010,07,11,13,38,23.00
2010,07,11,13,39,23.10
2010,07,11,13,40,23.10
2010,07,11,13,41,23.10
2010,07,11,13,42,23.10
2010,07,11,13,43,23.20
2010,07,11,13,44,23.20
2010,07,11,13,45,23.10
2010,07,11,13,46,23.10
2010,07,11,13,47,23.10
2010,07,11,13,48,23.10
2010,07,11,13,49,23.20
2010,07,11,13,50,23.30
2010,07,11,13,51,23.40
2010,07,11,13,52,23.40
2010,07,11,13,53,23.50
2010,07,11,13,54,23.60
2010,07,11,13,55,23.60
2010,07,11,13,56,23.60
2010,07,11,13,57,23.60
2010,07,11,13,58,23.60
2010,07,11,13,59,23.50
2010,07,11,14,00,23.50
2010,07,11,14,01,23.40
2010,07,11,14,02,23.30
2010,07,11,14,03,23.30
2010,07,11,14,04,23.30
2010,07,11,14,05,23.40
2010,07,11,14,06,23.40
2010,07,11,14,07,23.50
2010,07,11,14,08,23.50
2010,07,11,14,09,23.50
2010,07,11,14,10,23.40
2010,07,11,14,11,23.50
2010,07,11,14,12,23.40
2010,07,11,14,13,23.40
2010,07,11,14,14,23.40
2010,07,11,14,15,23.40
2010,07,11,14,16,23.40
2010,07,11,14,17,23.30
2010,07,11,14,18,23.30
2010,07,11,14,19,23.30
2010,07,11,14,20,23.20
2010,07,11,14,21,23.10
2010,07,11,14,22,23.10
2010,07,11,14,23,23.20
2010,07,11,14,24,23.20
2010,07,11,14,25,23.20
2010,07,11,14,26,23.30
2010,07,11,14,27,23.30
2010,07,11,14,28,23.40
2010,07,11,14,29,23.40
2010,07,11,14,30,23.40
2010,07,11,14,31,23.50
2010,07,11,14,32,23.50
2010,07,11,14,33,23.60
2010,07,11,14,34,23.50
2010,07,11,14,35,23.50
2010,07,11,14,36,23.50
2010,07,11,14,37,23.40
2010,07,11,14,38,23.40
2010,07,11,14,39,23.40
2010,07,11,14,40,23.40
2010,07,11,14,41,23.50
2010,07,11,14,42,23.60
2010,07,11,14,43,23.60
2010,07,11,14,44,23.60
2010,07,11,14,45,23.50
2010,07,11,14,46,23.50
2010,07,11,14,47,23.50
2010,07,11,14,48,23.60
2010,07,11,14,49,23.60
2010,07,11,14,50,23.70
2010,07,11,14,51,23.70
2010,07,11,14,52,23.70
2010,07,11,14,53,23.80
2010,07,11,14,54,23.80
2010,07,11,14,55,23.80
2010,07,11,14,56,23.80
2010,07,11,14,57,23.80
2010,07,11,14,58,23.90
2010,07,11,14,59,23.90
2010,07,11,15,00,23.90
2010,07,11,15,01,24.00
2010,07,11,15,02,24.00
2010,07,11,15,03,23.90
2010,07,11,15,04,23.90
2010,07,11,15,05,23.90
2010,07,11,15,06,23.90
2010,07,11,15,07,23.90
2010,07,11,15,08,23.80
2010,07,11,15,09,23.80
2010,07,11,15,10,23.90
2010,07,11,15,11,23.90
2010,07,11,15,12,23.90
2010,07,11,15,13,23.90
2010,07,11,15,14,23.90
2010,07,11,15,15,23.90
2010,07,11,15,16,23.90
2010,07,11,15,17,23.80
2010,07,11,15,18,23.80
2010,07,11,15,19,23.80
2010,07,11,15,20,23.80
2010,07,11,15,21,23.80
2010,07,11,15,22,23.90
2010,07,11,15,23,23.90
2010,07,11,15,24,23.90
2010,07,11,15,25,23.90
2010,07,11,15,26,23.90
2010,07,11,15,27,24.00
2010,07,11,15,28,24.00
2010,07,11,15,29,23.90
2010,07,11,15,30,24.00
2010,07,11,15,31,24.00
2010,07,11,15,32,24.10
2010,07,11,15,33,24.10
2010,07,11,15,34,24.10
2010,07,11,15,35,24.20
2010,07,11,15,36,24.20
2010,07,11,15,37,24.20
2010,07,11,15,38,24.20
2010,07,11,15,39,24.10
2010,07,11,15,40,24.10
2010,07,11,15,41,24.20
2010,07,11,15,42,24.20
2010,07,11,15,43,24.10
2010,07,11,15,44,24.10
2010,07,11,15,45,24.10
2010,07,11,15,46,24.10
2010,07,11,15,47,24.10
2010,07,11,15,48,24.10
2010,07,11,15,49,24.10
2010,07,11,15,50,24.10
2010,07,11,15,51,24.10
2010,07,11,15,52,24.10
2010,07,11,15,53,24.10
2010,07,11,15,54,24.10
2010,07,11,15,55,24.00
2010,07,11,15,56,24.10
2010,07,11,15,57,24.10
2010,07,11,15,58,24.20
2010,07,11,15,59,24.20
2010,07,11,16,00,24.20
2010,07,11,16,01,24.30
2010,07,11,16,02,24.30
2010,07,11,16,03,24.20
2010,07,11,16,04,24.20
2010,07,11,16,05,24.20
2010,07,11,16,06,24.20
2010,07,11,16,07,24.20
2010,07,11,16,08,24.20
2010,07,11,16,09,24.20
2010,07,11,16,10,24.20
2010,07,11,16,11,24.20
2010,07,11,16,12,24.10
2010,07,11,16,13,24.10
2010,07,11,16,14,24.10
2010,07,11,16,15,24.10
2010,07,11,16,16,24.10
2010,07,11,16,17,24.10
2010,07,11,16,18,24.10
2010,07,11,16,19,24.10
2010,07,11,16,20,24.20
2010,07,11,16,21,24.20
2010,07,11,16,22,24.10
2010,07,11,16,23,24.10
2010,07,11,16,24,24.00
2010,07,11,16,25,23.90
2010,07,11,16,26,23.80
2010,07,11,16,27,23.80
2010,07,11,16,28,23.80
2010,07,11,16,29,23.80
2010,07,11,16,30,23.80
2010,07,11,16,31,23.80
2010,07,11,16,32,23.80
2010,07,11,16,33,23.90
2010,07,11,16,34,23.90
2010,07,11,16,35,23.90
2010,07,11,16,36,23.90
2010,07,11,16,37,23.90
2010,07,11,16,38,24.00
2010,07,11,16,39,24.00
2010,07,11,16,40,24.00
2010,07,11,16,41,24.00
2010,07,11,16,42,24.00
2010,07,11,16,43,24.00
2010,07,11,16,44,24.00
2010,07,11,16,45,24.10
2010,07,11,16,46,24.10
2010,07,11,16,47,24.10
2010,07,11,16,48,24.10
2010,07,11,16,49,24.10
2010,07,11,16,50,24.10
2010,07,11,16,51,24.00
2010,07,11,16,52,24.00
2010,07,11,16,53,24.00
2010,07,11,16,54,23.90
2010,07,11,16,55,23.90
2010,07,11,16,56,23.90
2010,07,11,16,57,24.00
2010,07,11,16,58,24.10
2010,07,11,16,59,24.20
2010,07,11,17,00,24.30
2010,07,11,17,01,24.30
2010,07,11,17,02,24.40
2010,07,11,17,03,24.40
2010,07,11,17,04,24.40
2010,07,11,17,05,24.40
2010,07,11,17,06,24.50
2010,07,11,17,07,24.50
2010,07,11,17,08,24.50
2010,07,11,17,09,24.50
2010,07,11,17,10,24.50
2010,07,11,17,11,24.50
2010,07,11,17,12,24.50
2010,07,11,17,13,24.50
2010,07,11,17,14,24.50
2010,07,11,17,15,24.50
2010,07,11,17,16,24.50
2010,07,11,17,17,24.40
2010,07,11,17,18,24.40
2010,07,11,17,19,24.40
2010,07,11,17,20,24.30
2010,07,11,17,21,24.30
2010,07,11,17,22,24.30